[Date Prev][Date Next][Thread Prev][Thread Next] - [Date Index][Thread Index][Author Index]

ISS Keps 2-4



ISS
1 25544U 98067A   03035.17501381  .00028497  00000-0  34731-3 0  6546
2 25544  51.6376 328.3272 0005466 110.4337  28.9112 15.60246629240254


----
Via the sarex mailing list at AMSAT.ORG courtesy of AMSAT-NA.
To unsubscribe, send "unsubscribe sarex" to Majordomo@amsat.org



AMSAT Top AMSAT Home